• In Czech Republic
  • List of Countries
  • For 7 days
  • Water Temperature
  • Satellite Maps
  • Weather Map
  • Weather Widgets
  • user-avatar
    Login

    Hourly Weather Herne Bay

    Today, 18 November, Saturday

    Time Temperature Precipitation Wind Pressure Humidity
    00:00 +2°C° 0 mm 5 mps 767 mmHg 84%
    01:00 +1°C° 0 mm 5 mps 767 mmHg 85%
    02:00 +1°C° 0 mm 6 mps 767 mmHg 86%
    03:00 +1°C° 0 mm 6 mps 766 mmHg 86%
    04:00 +1°C° 0 mm 6 mps 766 mmHg 87%
    05:00 +1°C° 0 mm 6 mps 766 mmHg 87%
    06:00 +1°C° 0 mm 6 mps 766 mmHg 87%
    07:00 +2°C° 0 mm 6 mps 765 mmHg 86%
    08:00 +2°C° 0 mm 7 mps 765 mmHg 84%
    09:00 +3°C° 0 mm 7 mps 765 mmHg 83%
    10:00 +4°C° 0 mm 7 mps 765 mmHg 83%
    11:00 +5°C° 0 mm 7 mps 765 mmHg 83%
    12:00 +5°C° 0 mm 7 mps 764 mmHg 82%
    13:00 +5°C° 0.4 mm 7 mps 764 mmHg 85%
    14:00 +5°C° 0.4 mm 6 mps 764 mmHg 87%
    15:00 +7°C° 0.4 mm 6 mps 763 mmHg 89%
    16:00 +5°C° 0.2 mm 6 mps 763 mmHg 90%
    17:00 +5°C° 0.2 mm 6 mps 763 mmHg 91%
    18:00 +6°C° 0.2 mm 5 mps 763 mmHg 92%
    19:00 +4°C° 0 mm 6 mps 763 mmHg 91%
    20:00 +4°C° 0 mm 6 mps 763 mmHg 89%
    21:00 +4°C° 0 mm 6 mps 763 mmHg 88%
    22:00 +4°C° 0 mm 6 mps 763 mmHg 88%
    23:00 +3°C° 0 mm 6 mps 764 mmHg 88%

    Tomorrow, 19 November, Sunday

    Time Temperature Precipitation Wind Pressure Humidity
    00:00 +3°C° 0 mm 6 mps 764 mmHg 88%
    01:00 +2°C° 0 mm 6 mps 764 mmHg 88%
    02:00 +2°C° 0 mm 6 mps 764 mmHg 88%
    03:00 +2°C° 0 mm 6 mps 764 mmHg 87%
    04:00 +1°C° 0 mm 6 mps 764 mmHg 87%
    05:00 +1°C° 0 mm 6 mps 764 mmHg 86%
    06:00 +1°C° 0 mm 6 mps 765 mmHg 86%
    07:00 +1°C° 0 mm 6 mps 765 mmHg 83%
    08:00 +1°C° 0 mm 5 mps 765 mmHg 81%
    09:00 +2°C° 0 mm 5 mps 766 mmHg 79%
    10:00 +3°C° 0 mm 5 mps 766 mmHg 74%
    11:00 +3°C° 0 mm 5 mps 766 mmHg 68%
    12:00 +5°C° 0 mm 4 mps 766 mmHg 63%
    13:00 +5°C° 0 mm 4 mps 766 mmHg 64%
    14:00 +6°C° 0 mm 4 mps 766 mmHg 65%
    15:00 +6°C° 0 mm 4 mps 766 mmHg 65%
    16:00 +5°C° 0 mm 3 mps 766 mmHg 70%
    17:00 +4°C° 0 mm 3 mps 765 mmHg 74%
    18:00 +3°C° 0 mm 3 mps 765 mmHg 79%
    19:00 +4°C° 0 mm 3 mps 765 mmHg 80%
    20:00 +4°C° 0 mm 3 mps 765 mmHg 81%
    21:00 +4°C° 0 mm 3 mps 765 mmHg 82%
    22:00 +5°C° 0 mm 4 mps 765 mmHg 84%
    23:00 +5°C° 0 mm 4 mps 765 mmHg 85%

    Day after tomorrow, 20 November, Monday

    Time Temperature Precipitation Wind Pressure Humidity
    00:00 +6°C° 0 mm 5 mps 764 mmHg 86%
    01:00 +7°C° 0 mm 6 mps 764 mmHg 89%
    02:00 +7°C° 0 mm 6 mps 763 mmHg 91%
    03:00 +8°C° 0 mm 7 mps 762 mmHg 94%
    04:00 +7°C° 0 mm 8 mps 762 mmHg 93%
    05:00 +7°C° 0 mm 8 mps 761 mmHg 92%
    06:00 +7°C° 0 mm 9 mps 760 mmHg 91%
    07:00 +8°C° 0.1 mm 10 mps 760 mmHg 89%
    08:00 +8°C° 0.1 mm 10 mps 760 mmHg 87%
    09:00 +9°C° 0.1 mm 11 mps 760 mmHg 85%
    10:00 +9°C° 0 mm 11 mps 759 mmHg 83%
    11:00 +11°C° 0 mm 11 mps 759 mmHg 82%
    12:00 +11°C° 0 mm 11 mps 759 mmHg 80%
    13:00 +11°C° 0 mm 11 mps 758 mmHg 81%
    14:00 +11°C° 0 mm 11 mps 758 mmHg 81%
    15:00 +11°C° 0 mm 11 mps 757 mmHg 82%
    16:00 +11°C° 0.2 mm 11 mps 757 mmHg 83%
    17:00 +11°C° 0.2 mm 11 mps 757 mmHg 84%
    18:00 +11°C° 0.2 mm 11 mps 757 mmHg 85%
    19:00 +11°C° 0.1 mm 10 mps 757 mmHg 86%
    20:00 +11°C° 0.1 mm 9 mps 757 mmHg 87%
    21:00 +11°C° 0.1 mm 9 mps 758 mmHg 89%
    22:00 +11°C° 0 mm 8 mps 758 mmHg 89%
    23:00 +11°C° 0 mm 8 mps 758 mmHg 90%

    21 November, Tuesday

    Time Temperature Precipitation Wind Pressure Humidity
    00:00 +11°C° 0 mm 8 mps 758 mmHg 91%
    01:00 +11°C° 0 mm 8 mps 758 mmHg 91%
    02:00 +11°C° 0 mm 8 mps 758 mmHg 91%
    03:00 +10°C° 0 mm 7 mps 758 mmHg 91%
    04:00 +10°C° 0 mm 7 mps 758 mmHg 91%
    05:00 +10°C° 0 mm 7 mps 758 mmHg 91%
    06:00 +10°C° 0 mm 7 mps 758 mmHg 91%
    07:00 +10°C° 0 mm 7 mps 758 mmHg 91%
    08:00 +10°C° 0 mm 7 mps 758 mmHg 90%
    09:00 +10°C° 0 mm 7 mps 757 mmHg 89%
    10:00 +11°C° 0 mm 8 mps 757 mmHg 86%
    11:00 +11°C° 0 mm 9 mps 757 mmHg 83%
    12:00 +12°C° 0 mm 9 mps 757 mmHg 80%
    13:00 +12°C° 0 mm 9 mps 757 mmHg 80%
    14:00 +11°C° 0 mm 10 mps 756 mmHg 80%
    15:00 +11°C° 0 mm 10 mps 756 mmHg 80%
    16:00 +11°C° 0 mm 10 mps 756 mmHg 79%
    17:00 +11°C° 0 mm 9 mps 756 mmHg 79%
    18:00 +11°C° 0 mm 9 mps 756 mmHg 78%
    19:00 +11°C° 0 mm 9 mps 756 mmHg 80%
    20:00 +10°C° 0 mm 9 mps 755 mmHg 81%
    21:00 +10°C° 0 mm 8 mps 755 mmHg 82%
    22:00 +10°C° 0 mm 9 mps 755 mmHg 82%
    23:00 +11°C° 0 mm 9 mps 755 mmHg 81%

    22 November, Wednesday

    Time Temperature Precipitation Wind Pressure Humidity
    00:00 +11°C° 0 mm 9 mps 755 mmHg 81%
    01:00 +11°C° 0 mm 9 mps 754 mmHg 81%
    02:00 +11°C° 0 mm 9 mps 754 mmHg 82%
    03:00 +10°C° 0 mm 9 mps 754 mmHg 82%
    04:00 +10°C° 0 mm 9 mps 754 mmHg 84%
    05:00 +10°C° 0 mm 9 mps 753 mmHg 85%
    06:00 +10°C° 0 mm 9 mps 753 mmHg 86%
    07:00 +11°C° 0 mm 9 mps 753 mmHg 84%
    08:00 +11°C° 0 mm 9 mps 753 mmHg 82%
    09:00 +11°C° 0 mm 9 mps 753 mmHg 79%
    10:00 +12°C° 0 mm 9 mps 753 mmHg 75%
    11:00 +13°C° 0 mm 9 mps 753 mmHg 70%
    12:00 +13°C° 0 mm 9 mps 753 mmHg 65%
    13:00 +13°C° 0 mm 9 mps 752 mmHg 66%
    14:00 +13°C° 0 mm 9 mps 752 mmHg 67%
    15:00 +12°C° 0 mm 8 mps 751 mmHg 68%
    16:00 +12°C° 0 mm 8 mps 751 mmHg 69%
    17:00 +11°C° 0 mm 8 mps 751 mmHg 71%
    18:00 +11°C° 0 mm 8 mps 751 mmHg 73%
    19:00 +11°C° 0 mm 8 mps 750 mmHg 72%
    20:00 +11°C° 0 mm 9 mps 750 mmHg 71%
    21:00 +11°C° 0 mm 9 mps 750 mmHg 70%
    22:00 +10°C° 0 mm 9 mps 749 mmHg 70%
    23:00 +10°C° 0 mm 9 mps 749 mmHg 70%

    23 November, Thursday

    Time Temperature Precipitation Wind Pressure Humidity
    00:00 +10°C° 0 mm 9 mps 748 mmHg 70%
    01:00 +10°C° 0 mm 9 mps 748 mmHg 71%
    02:00 +9°C° 0 mm 10 mps 747 mmHg 72%
    03:00 +9°C° 0 mm 10 mps 747 mmHg 73%
    04:00 +9°C° 0 mm 10 mps 747 mmHg 73%
    05:00 +11°C° 0 mm 10 mps 746 mmHg 73%
    06:00 +11°C° 0 mm 11 mps 746 mmHg 73%
    07:00 +11°C° 0.2 mm 11 mps 745 mmHg 75%
    08:00 +10°C° 0.2 mm 12 mps 745 mmHg 76%
    09:00 +12°C° 0.2 mm 13 mps 745 mmHg 78%
    10:00 +12°C° 0.1 mm 14 mps 745 mmHg 77%
    11:00 +13°C° 0.1 mm 14 mps 744 mmHg 76%
    12:00 +13°C° 0.1 mm 14 mps 744 mmHg 75%
    13:00 +14°C° 0.1 mm 14 mps 744 mmHg 74%
    14:00 +14°C° 0.1 mm 14 mps 744 mmHg 73%
    15:00 +14°C° 0.1 mm 14 mps 744 mmHg 73%
    16:00 +14°C° 0.1 mm 14 mps 745 mmHg 73%
    17:00 +14°C° 0.1 mm 13 mps 745 mmHg 74%
    18:00 +13°C° 0.1 mm 13 mps 746 mmHg 75%
    19:00 +13°C° 0.1 mm 12 mps 746 mmHg 77%
    20:00 +13°C° 0.1 mm 12 mps 747 mmHg 78%
    21:00 +13°C° 0.1 mm 11 mps 748 mmHg 80%
    22:00 +13°C° 0.1 mm 11 mps 748 mmHg 81%
    23:00 +13°C° 0.1 mm 11 mps 748 mmHg 82%
    Show more